Weather History for KSLB - October, 2011

Change the Weather History Date:

Tuesday, October 11, 2011

  Actual Average Record
Temperature  
Mean Temperature 60 °F -  
Max Temperature 75 °F 65 °F 82 °F (1997)
Min Temperature 45 °F 41 °F 30 °F (2000)
Degree Days  
Heating Degree Days 5    
Growing Degree Days 10 (Base 50)    
Moisture  
Dew Point 43 °F    
Average Humidity 62    
Maximum Humidity 92    
Minimum Humidity 22    
Precipitation  
Precipitation 0.00 in - - ()
Sea Level Pressure  
Sea Level Pressure 29.88 in    
Wind  
Wind Speed 8 mph (SSE)    
Max Wind Speed 21 mph    
Max Gust Speed 26 mph    
Visibility 8 miles    
Events      
Averages and records for this station are not official NWS values.
T = Trace of Precipitation, MM = Missing Value Source: NWS Daily Summary

Daily Weather History Graph

Daily Weather History Graph

Search for Another Location

Airport or City:

Trip Planner

Search our weather history database for the weather conditions in past years. The results will help you decide how hot, cold, wet, or windy it might be!

Date:

Astronomy

Oct. 11, 2011 Rise Set
Actual Time 7:29 AM CDT 6:45 PM CDT
Civil Twilight 7:00 AM CDT 7:13 PM CDT
Nautical Twilight 6:28 AM CDT 7:46 PM CDT
Astronomical Twilight 5:55 AM CDT 8:19 PM CDT
Moon 6:16 PM CDT (10/11) 7:08 AM CDT (10/11)
Length of Visible Light 12h 13m
Length of Day
11h 16m
Full, 100% of the Moon is Illuminated
Oct 11
Full
Oct 11
Full
Oct 19
Last Quarter
Oct 26
New
Nov 2
First Quarter

Hourly Weather History & Observations

Time (CDT) Temp. Windchill Dew Point Humidity Pressure Visibility Wind Dir Wind Speed Gust Speed Precip Events Conditions
12:15 AM 50.7 °F - 45.5 °F 82% 29.95 in 10.0 mi SSE 5.8 mph - N/A   Clear
12:35 AM 50.9 °F - 45.9 °F 83% 29.95 in 10.0 mi South 5.8 mph - N/A   Clear
12:55 AM 49.6 °F - 44.8 °F 83% 29.94 in 10.0 mi SSW 5.8 mph - N/A   Clear
1:15 AM 51.3 °F - 45.9 °F 82% 29.94 in 10.0 mi SSW 6.9 mph - N/A   Clear
1:35 AM 52.9 °F - 46.4 °F 79% 29.93 in 10.0 mi SSW 6.9 mph - N/A   Clear
1:55 AM 52.0 °F - 45.9 °F 80% 29.93 in 10.0 mi South 8.1 mph - N/A   Clear
2:15 AM 50.9 °F - 45.5 °F 82% 29.93 in 10.0 mi South 5.8 mph - N/A   Clear
2:35 AM 49.8 °F - 45.0 °F 83% 29.93 in 10.0 mi South 5.8 mph - N/A   Clear
2:55 AM 49.3 °F - 45.1 °F 86% 29.93 in 10.0 mi SSE 6.9 mph - N/A   Clear
3:15 AM 48.9 °F - 45.1 °F 87% 29.92 in 10.0 mi SSE 6.9 mph - N/A   Clear
3:35 AM 50.0 °F - 46.2 °F 87% 29.92 in 10.0 mi SSE 8.1 mph - N/A   Clear
3:55 AM 50.2 °F - 46.2 °F 86% 29.92 in 10.0 mi SSE 6.9 mph - N/A   Clear
4:15 AM 49.5 °F - 45.7 °F 87% 29.92 in 10.0 mi South 6.9 mph - N/A   Clear
4:55 AM 48.6 °F - 45.1 °F 88% 29.92 in 10.0 mi South 8.1 mph - N/A   Clear
5:15 AM 48.4 °F - 45.0 °F 88% 29.92 in 10.0 mi South 6.9 mph - N/A   Clear
5:55 AM 45.9 °F 42.9 °F 43.0 °F 90% 29.92 in 7.0 mi South 5.8 mph - N/A   Clear
6:35 AM 46.2 °F 42.2 °F 43.7 °F 91% 29.92 in 7.0 mi SSE 8.1 mph - N/A   Clear
6:55 AM 46.0 °F 43.9 °F 43.7 °F 92% 29.92 in 4.0 mi SSE 4.6 mph - N/A   Clear
7:15 AM 45.5 °F 42.5 °F 43.2 °F 92% 29.92 in 4.0 mi SE 5.8 mph - N/A   Clear
7:55 AM 46.6 °F - 44.4 °F 92% 29.91 in 4.0 mi SSE 6.9 mph - N/A   Clear
8:15 AM 47.7 °F - 45.3 °F 92% 29.91 in 2.5 mi ESE 5.8 mph - N/A   Clear
8:35 AM 47.5 °F - 45.1 °F 92% 29.92 in 2.5 mi SSE 5.8 mph - N/A   Clear
9:15 AM 51.8 °F - 49.3 °F 91% 29.91 in 2.0 mi SSE 5.8 mph - N/A   Mostly Cloudy
9:35 AM 51.8 °F - 49.3 °F 91% 29.91 in 0.5 mi SSE 6.9 mph - N/A   Overcast
9:55 AM 52.5 °F - 50.0 °F 91% 29.91 in 0.5 mi SSE 8.1 mph - N/A   Overcast
10:15 AM 53.4 °F - 51.1 °F 92% 29.91 in 2.5 mi SSE 9.2 mph - N/A   Overcast
10:35 AM 55.8 °F - 52.3 °F 88% 29.91 in 7.0 mi SSE 8.1 mph - N/A   Mostly Cloudy
10:55 AM 58.5 °F - 52.7 °F 81% 29.90 in 10.0 mi SSE 6.9 mph - N/A   Scattered Clouds
11:15 AM 61.3 °F - 52.9 °F 74% 29.90 in 10.0 mi SSE 10.4 mph - N/A   Clear
11:35 AM 64.0 °F - 52.3 °F 66% 29.89 in 10.0 mi SSE 6.9 mph - N/A   Clear
11:55 AM 65.8 °F - 51.1 °F 59% 29.89 in 10.0 mi SSE 11.5 mph 16.1 mph N/A   Clear
12:15 PM 68.0 °F - 48.9 °F 50% 29.88 in 10.0 mi South 12.7 mph 16.1 mph N/A   Scattered Clouds
12:35 PM 69.3 °F - 46.8 °F 45% 29.87 in 10.0 mi South 12.7 mph - N/A   Scattered Clouds
12:55 PM 70.9 °F - 45.1 °F 40% 29.87 in 10.0 mi SSE 8.1 mph 16.1 mph N/A   Scattered Clouds
1:15 PM 72.3 °F - 41.5 °F 33% 29.86 in 10.0 mi South 18.4 mph - N/A   Scattered Clouds
1:35 PM 73.0 °F - 39.0 °F 29% 29.84 in 10.0 mi South 13.8 mph 19.6 mph N/A   Scattered Clouds
1:55 PM 74.5 °F - 36.7 °F 25% 29.84 in 10.0 mi South 15.0 mph 24.2 mph N/A   Scattered Clouds
2:35 PM 75.2 °F - 37.0 °F 25% 29.83 in 10.0 mi South 16.1 mph 25.3 mph N/A   Scattered Clouds
2:55 PM 75.4 °F - 37.0 °F 25% 29.82 in 10.0 mi South 15.0 mph 20.7 mph N/A   Mostly Cloudy
3:15 PM 75.0 °F - 37.0 °F 25% 29.82 in 10.0 mi South 19.6 mph 25.3 mph N/A   Mostly Cloudy
3:35 PM 73.8 °F - 37.8 °F 27% 29.82 in 10.0 mi South 19.6 mph 23.0 mph N/A   Mostly Cloudy
3:55 PM 74.1 °F - 37.2 °F 26% 29.81 in 10.0 mi South 13.8 mph - N/A   Mostly Cloudy
4:15 PM 75.7 °F - 37.0 °F 25% 29.80 in 10.0 mi SSE 13.8 mph 24.2 mph N/A   Mostly Cloudy
4:35 PM 75.7 °F - 36.3 °F 24% 29.79 in 10.0 mi SSE 15.0 mph - N/A   Mostly Cloudy
4:55 PM 75.7 °F - 35.8 °F 23% 29.79 in 10.0 mi South 20.7 mph 26.5 mph N/A   Scattered Clouds
5:15 PM 75.0 °F - 33.4 °F 22% 29.78 in 10.0 mi South 16.1 mph 23.0 mph N/A   Scattered Clouds
5:35 PM 74.5 °F - 33.1 °F 22% 29.78 in 10.0 mi South 17.3 mph 24.2 mph N/A   Scattered Clouds
5:55 PM 74.1 °F - 33.1 °F 22% 29.78 in 10.0 mi South 12.7 mph 21.9 mph N/A   Scattered Clouds
6:15 PM 72.0 °F - 33.6 °F 24% 29.78 in 10.0 mi South 11.5 mph - N/A   Clear
6:35 PM 70.0 °F - 35.6 °F 28% 29.79 in 10.0 mi SSE 9.2 mph - N/A   Clear
6:55 PM 68.0 °F - 38.1 °F 33% 29.79 in 10.0 mi SSE 9.2 mph - N/A   Clear
7:15 PM 66.4 °F - 40.8 °F 39% 29.79 in 10.0 mi SSE 9.2 mph - N/A   Scattered Clouds
7:55 PM 64.9 °F - 44.1 °F 47% 29.79 in 10.0 mi SE 8.1 mph - N/A   Mostly Cloudy
8:15 PM 64.4 °F - 44.6 °F 49% 29.79 in 10.0 mi SE 6.9 mph - N/A   Mostly Cloudy
8:35 PM 63.7 °F - 44.8 °F 50% 29.80 in 10.0 mi SSE 6.9 mph - N/A   Scattered Clouds
8:55 PM 63.3 °F - 45.1 °F 52% 29.80 in 10.0 mi SSE 8.1 mph - N/A   Clear
9:15 PM 63.3 °F - 45.3 °F 52% 29.80 in 10.0 mi SSE 8.1 mph - N/A   Scattered Clouds
9:35 PM 62.6 °F - 45.5 °F 54% 29.80 in 10.0 mi SSE 6.9 mph - N/A   Scattered Clouds
9:55 PM 62.1 °F - 45.5 °F 55% 29.80 in 10.0 mi SSE 8.1 mph - N/A   Mostly Cloudy
10:15 PM 62.8 °F - 45.5 °F 53% 29.79 in 10.0 mi SSE 6.9 mph - N/A   Mostly Cloudy
10:35 PM 62.1 °F - 45.5 °F 55% 29.79 in 10.0 mi SSE 6.9 mph - N/A   Mostly Cloudy
10:55 PM 61.7 °F - 45.5 °F 55% 29.79 in 10.0 mi SSE 6.9 mph - N/A   Mostly Cloudy
11:15 PM 61.0 °F - 45.5 °F 57% 29.79 in 10.0 mi SSE 8.1 mph - N/A   Scattered Clouds
11:35 PM 60.1 °F - 45.5 °F 59% 29.78 in 10.0 mi SSE 5.8 mph - N/A   Scattered Clouds
11:55 PM 59.0 °F - 45.5 °F 61% 29.78 in 10.0 mi South 5.8 mph - N/A   Mostly Cloudy